Volver al catálogo

CZ-6A DEB

ActivoSSO
NORAD 54306·DEBRIS·🇨🇳 China

Lanzado Nov 11, 2022 desde Taiyuan Satellite Launch Center

Loading…

Próximos Pases (próximas 24 horas)

TLE

ActualizadoSource: Space-Track

Época: Sep 14, 2026, 06:49 UTC

1 54306U 22151AZ  26257.28458234  .00000240  00000-0  15440-3 0  9990
2 54306  98.8401 258.7033 0040853  75.0477 285.5212 14.11725738197166

Sigue CZ-6A DEB en tiempo real con AllMySat

Download on the App Store